Visibility
15.0 15.0 15.0 15.0 15.0 15.0 15.0 15.0 15.0 15.0 15.0 15.0 15.0 15.0 15.0 15.0 15.0 15.0 15.0 15.0 15.0 15.0 15.0 15.0 15.0 15.0 15.0 15.0 15.0 15.0 15.0 15.0 15.0 15.0 15.0 15.0 15.0 15.0 15.0 15.0 15.0 15.0 15.0 15.0
15.0 15.0 15.0 15.0 15.0 15.0 15.0 15.0 15.0 15.0 15.0 15.0 15.0 15.0 15.0 15.0 15.0 15.0 15.0 15.0 15.0 15.0 15.0 15.0 15.0 15.0 15.0 15.0 15.0 15.0 15.0 15.0 15.0 15.0 15.0 15.0 15.0 15.0 15.0 15.0 15.0 15.0 15.0 15.0
2.9 14.2 15.0 11.5 15.0 15.0 15.0 15.0 15.0 15.0 15.0 15.0 15.0 15.0 15.0 15.0 15.0 15.0 15.0 15.0 15.0 15.0 15.0 15.0 15.0 15.0 15.0 15.0 15.0 15.0 15.0 15.0 15.0 15.0 15.0 15.0 15.0 15.0 15.0 15.0 12.0 0.5 0.3 0.6
0.3 9.2 0.2 15.0 15.0 15.0 15.0 15.0 15.0 15.0 15.0 15.0 15.0 15.0 15.0 15.0 15.0 15.0 15.0 15.0 15.0 15.0 15.0 15.0 15.0 7.2 8.4 0.2 0.1 0.1 0.0 0.0 0.1 6.8 0.1 6.8 2.5 0.1 0.0 0.1 0.0 0.2 0.0 0.0
0.1 0.3 14.2 15.0 15.0 15.0 15.0 15.0 15.0 15.0 15.0 15.0 15.0 15.0 15.0 15.0 15.0 15.0 15.0 15.0 15.0 15.0 15.0 15.0 15.0 14.3 0.3 0.0 0.0 0.0 0.0 0.0 0.1 0.0 0.0 0.0 0.0 0.0 0.0 0.0 0.0 0.0 0.0 0.0
0.1 0.1 0.3 15.0 15.0 15.0 15.0 15.0 15.0 15.0 15.0 15.0 15.0 15.0 15.0 15.0 15.0 15.0 15.0 15.0 15.0 15.0 15.0 15.0 15.0 15.0 15.0 0.1 0.0 0.0 0.0 0.0 0.1 0.5 0.0 0.0 0.0 0.0 0.0 0.0 0.0 0.3 0.0 0.0
0.1 0.1 5.4 15.0 15.0 15.0 15.0 15.0 15.0 15.0 15.0 15.0 15.0 15.0 15.0 15.0 15.0 15.0 15.0 15.0 15.0 15.0 15.0 0.4 15.0 6.0 0.7 0.1 0.1 0.0 0.0 0.0 0.1 6.6 0.0 0.0 0.0 0.0 0.2 0.8 0.1 0.3 0.1 0.0
0.1 0.1 0.1 15.0 15.0 15.0 15.0 15.0 15.0 15.0 15.0 15.0 15.0 15.0 15.0 15.0 15.0 15.0 15.0 15.0 15.0 15.0 15.0 15.0 15.0 6.0 0.1 0.1 0.0 0.0 0.0 0.0 0.0 0.0 8.3 0.0 0.4 8.1 3.2 4.4 3.3 3.2 0.7 1.3
14.0 15.0 15.0 15.0 15.0 15.0 15.0 15.0 15.0 15.0 15.0 15.0 15.0 15.0 15.0 15.0 10.4 0.1 13.3 15.0 15.0 15.0 15.0 15.0 15.0 15.0 14.1 13.5 0.0 0.0 0.0 0.0 0.0 0.1 0.1 9.8 11.4 7.2 8.7 7.6 13.2 4.3 4.2 1.2
15.0 11.0 15.0 15.0 15.0 15.0 15.0 15.0 15.0 15.0 15.0 15.0 15.0 15.0 15.0 0.3 0.0 0.2 13.1 15.0 15.0 15.0 15.0 15.0 15.0 15.0 15.0 11.2 0.1 0.1 0.1 0.1 0.2 0.2 0.4 5.1 15.0 15.0 15.0 15.0 7.4 3.0 4.0 2.9
15.0 15.0 15.0 15.0 15.0 15.0 15.0 15.0 15.0 15.0 15.0 15.0 15.0 15.0 15.0 15.0 15.0 15.0 15.0 15.0 15.0 15.0 15.0 15.0 15.0 15.0 15.0 0.5 0.1 0.1 0.1 0.5 0.4 15.0 8.2 2.7 9.6 15.0 15.0 15.0 15.0 15.0 15.0 15.0
15.0 15.0 15.0 15.0 15.0 15.0 15.0 15.0 15.0 15.0 15.0 15.0 15.0 15.0 15.0 15.0 15.0 15.0 15.0 15.0 15.0 15.0 15.0 15.0 15.0 15.0 15.0 15.0 2.7 13.4 0.4 3.1 5.7 4.5 12.1 9.5 13.1 1.1 9.7 15.0 15.0 15.0 15.0 15.0
15.0 15.0 15.0 15.0 15.0 15.0 15.0 15.0 15.0 15.0 15.0 15.0 15.0 15.0 15.0 15.0 15.0 15.0 15.0 15.0 15.0 15.0 15.0 15.0 15.0 1.2 1.6 3.6 15.0 15.0 15.0 15.0 14.6 13.6 15.0 14.8 8.6 3.0 1.4 1.1 7.2 15.0 15.0 15.0
15.0 15.0 15.0 15.0 15.0 15.0 15.0 15.0 15.0 15.0 15.0 15.0 15.0 15.0 15.0 15.0 15.0 15.0 15.0 15.0 15.0 15.0 15.0 15.0 0.9 0.1 0.0 0.1 0.2 6.5 12.6 10.7 15.0 12.8 7.6 4.5 1.4 0.9 5.2 5.0 2.5 1.1 0.7 9.3
15.0 15.0 15.0 15.0 15.0 15.0 15.0 15.0 15.0 15.0 15.0 15.0 15.0 15.0 15.0 15.0 15.0 15.0 15.0 15.0 15.0 15.0 15.0 15.0 12.1 0.2 0.0 0.4 3.3 2.9 8.2 2.4 1.3 0.9 2.9 2.3 2.9 5.7 15.0 14.1 9.9 4.2 1.8 5.4
15.0 15.0 15.0 15.0 15.0 15.0 15.0 15.0 15.0 15.0 15.0 15.0 15.0 15.0 15.0 15.0 15.0 15.0 15.0 15.0 15.0 14.7 2.8 15.0 8.3 0.1 3.2 4.4 2.8 4.0 1.1 3.6 12.3 12.1 8.9 4.5 3.3 8.6 10.8 10.2 9.8 11.6 14.8 14.0
14.4 14.6 15.0 15.0 15.0 15.0 15.0 15.0 15.0 15.0 15.0 15.0 15.0 15.0 15.0 15.0 15.0 14.4 4.1 14.9 15.0 15.0 4.7 0.1 0.2 1.6 4.4 6.5 15.0 10.4 12.9 9.3 14.7 15.0 14.9 15.0 15.0 13.5 15.0 13.4 13.5 11.4 12.1 14.7
15.0 15.0 15.0 15.0 15.0 15.0 15.0 15.0 15.0 15.0 15.0 10.8 10.5 11.2 10.5 0.2 2.7 0.1 0.3 1.2 15.0 2.1 0.1 0.1 1.2 2.1 3.1 8.1 15.0 15.0 15.0 15.0 15.0 15.0 15.0 15.0 15.0 15.0 15.0 15.0 15.0 15.0 8.9 1.4
15.0 15.0 15.0 15.0 15.0 15.0 15.0 15.0 15.0 15.0 15.0 0.2 0.1 0.1 3.8 0.2 0.0 0.1 0.3 8.5 2.6 0.1 0.1 0.4 2.1 1.2 1.1 1.8 15.0 15.0 15.0 13.7 15.0 15.0 15.0 1.4 14.1 15.0 15.0 15.0 15.0 15.0 15.0 8.8
15.0 12.2 15.0 15.0 15.0 9.7 8.9 12.6 13.2 0.5 0.2 15.0 15.0 15.0 3.9 1.8 2.2 0.2 0.1 0.1 0.2 0.5 0.8 2.3 6.0 1.5 0.4 0.6 9.2 15.0 14.9 12.7 15.0 15.0 15.0 15.0 15.0 11.0 15.0 15.0 15.0 14.0 4.6 3.1
15.0 8.6 0.1 0.1 0.3 15.0 15.0 15.0 15.0 0.3 1.6 15.0 15.0 15.0 12.5 14.7 15.0 3.0 1.4 1.7 0.3 15.0 4.8 2.2 1.6 0.6 0.9 3.0 12.2 15.0 13.7 11.4 15.0 15.0 8.8 9.5 7.7 15.0 15.0 15.0 15.0 12.2 5.8 7.6
15.0 15.0 3.9 1.6 0.2 0.2 9.3 10.3 15.0 15.0 15.0 15.0 0.9 0.3 0.5 1.1 2.7 4.6 15.0 14.8 5.5 3.9 1.4 0.5 0.5 2.0 7.0 15.0 2.6 4.1 9.4 13.3 7.5 3.0 3.8 6.5 9.6 10.0 15.0 15.0 15.0 15.0 15.0 15.0
15.0 13.4 2.5 1.9 2.0 0.7 0.2 0.2 15.0 15.0 14.8 9.5 0.6 0.7 3.2 4.6 13.9 15.0 5.8 1.4 13.1 5.9 2.8 1.0 1.0 1.0 1.6 2.6 1.3 1.3 2.4 2.6 3.2 8.2 11.7 10.7 14.6 15.0 15.0 15.0 15.0 15.0 15.0 15.0
15.0 12.5 3.5 1.3 1.1 2.2 7.5 0.4 0.2 1.3 7.8 14.0 0.4 0.6 8.3 15.0 5.6 15.0 15.0 15.0 5.0 1.4 1.0 0.7 0.3 1.1 1.9 1.4 1.3 3.8 10.5 6.1 4.4 4.1 11.3 3.3 9.1 11.9 13.8 15.0 15.0 9.9 10.0 5.9
15.0 12.7 14.3 15.0 15.0 13.2 14.7 6.9 4.0 1.2 1.3 0.6 2.1 14.5 15.0 15.0 13.9 9.7 15.0 14.4 2.4 1.6 0.5 0.3 2.9 14.7 5.1 3.2 3.1 15.0 15.0 11.6 9.2 10.7 11.8 11.9 12.0 11.3 15.0 15.0 15.0 15.0 14.9 14.7
15.0 15.0 11.4 9.2 15.0 15.0 15.0 15.0 14.0 2.9 0.6 0.2 1.0 3.3 10.1 15.0 15.0 15.0 12.8 12.8 3.3 1.4 1.7 2.1 7.8 4.7 2.9 15.0 15.0 15.0 15.0 14.5 7.4 14.8 15.0 15.0 15.0 15.0 15.0 15.0 15.0 15.0 15.0 15.0
15.0 15.0 15.0 15.0 15.0 15.0 15.0 15.0 15.0 14.3 4.2 2.9 11.5 3.9 13.2 14.9 9.8 14.0 4.3 1.1 0.8 0.9 0.4 0.7 4.6 13.7 6.7 3.6 15.0 15.0 15.0 15.0 14.0 15.0 15.0 15.0 15.0 15.0 15.0 15.0 15.0 15.0 11.9 10.2